Weather History for KROC - September, 2012

Change the Weather History Date:

Monday, September 10, 2012

  Actual Average Record
Temperature  
Mean Temperature 58 °F 64 °F  
Max Temperature 68 °F 74 °F 94 °F (1897)
Min Temperature 48 °F 54 °F 37 °F (1975)
Degree Days  
Heating Degree Days 7 3  
Month to date heating degree days 15 24  
Since 1 July heating degree days 22 58  
Cooling Degree Days 0 2  
Month to date cooling degree days 53 27  
Year to date cooling degree days 788 511  
Growing Degree Days 8 (Base 50)    
Moisture  
Dew Point 44 °F    
Average Humidity 65    
Maximum Humidity 93    
Minimum Humidity 37    
Precipitation  
Precipitation 0.00 in 0.11 in 0.77 in (1946)
Month to date precipitation 2.89 1.09  
Year to date precipitation 23.38 23.69  
Snow  
Snow 0.00 in 0.00 in 0.00 in ()
Month to date snowfall 0.0 0.0  
Since 1 July snowfall 0.0 0.0  
Since 1 September snowfall 0.0 0.0  
Snow Depth 0.00 in    
Sea Level Pressure  
Sea Level Pressure 30.12 in    
Wind  
Wind Speed 6 mph (WNW)    
Max Wind Speed 17 mph    
Max Gust Speed 23 mph    
Visibility 10 miles    
Events      
T = Trace of Precipitation, MM = Missing Value Source: NWS Daily Summary

Daily Weather History Graph

Daily Weather History Graph

Search for Another Location

Airport or City:

Trip Planner

Search our weather history database for the weather conditions in past years. The results will help you decide how hot, cold, wet, or windy it might be!

Date:

Astronomy

Sep. 10, 2012 Rise Set
Actual Time 6:45 AM EDT 7:28 PM EDT
Civil Twilight 6:16 AM EDT 7:57 PM EDT
Nautical Twilight 5:42 AM EDT 8:31 PM EDT
Astronomical Twilight 5:07 AM EDT 9:06 PM EDT
Moon 12:57 AM EDT (9/10) 4:03 PM EDT (9/10)
Length of Visible Light 13h 40m
Length of Day
12h 43m
Waning Crescent, 30% of the Moon is Illuminated
Sep 10
Waning Crescent
Sep 15
New
Sep 22
First Quarter
Sep 29
Full
Oct 8
Last Quarter

Hourly Weather History & Observations

Time (EDT) Temp. Dew Point Humidity Pressure Visibility Wind Dir Wind Speed Gust Speed Precip Events Conditions
12:54 AM 52.0 °F 48.9 °F 89% 30.01 in 10.0 mi WSW 4.6 mph - N/A   Partly Cloudy
1:54 AM 50.0 °F 48.0 °F 93% 30.01 in 10.0 mi West 5.8 mph - N/A   Partly Cloudy
2:54 AM 48.9 °F 46.0 °F 90% 30.02 in 10.0 mi Calm Calm - N/A   Scattered Clouds
3:54 AM 50.0 °F 46.0 °F 86% 30.03 in 10.0 mi Calm Calm - N/A   Partly Cloudy
4:54 AM 50.0 °F 46.0 °F 86% 30.04 in 10.0 mi Calm Calm - N/A   Scattered Clouds
5:54 AM 48.0 °F 46.0 °F 93% 30.07 in 10.0 mi WNW 3.5 mph - N/A   Scattered Clouds
6:54 AM 48.9 °F 46.0 °F 90% 30.09 in 10.0 mi Calm Calm - N/A   Scattered Clouds
7:54 AM 55.0 °F 46.9 °F 74% 30.12 in 10.0 mi NW 4.6 mph - N/A   Scattered Clouds
8:54 AM 60.1 °F 46.9 °F 62% 30.13 in 10.0 mi NNW 4.6 mph - N/A   Partly Cloudy
9:54 AM 62.1 °F 46.0 °F 56% 30.15 in 10.0 mi NNW 9.2 mph - N/A   Scattered Clouds
10:54 AM 62.1 °F 42.1 °F 48% 30.16 in 10.0 mi WNW 10.4 mph 18.4 mph N/A   Scattered Clouds
11:54 AM 64.0 °F 39.9 °F 41% 30.17 in 10.0 mi NNW 12.7 mph 17.3 mph N/A   Partly Cloudy
12:54 PM 64.9 °F 41.0 °F 42% 30.16 in 10.0 mi North 11.5 mph - N/A   Partly Cloudy
1:54 PM 66.0 °F 39.9 °F 38% 30.16 in 10.0 mi NNW 15.0 mph - N/A   Partly Cloudy
2:54 PM 66.0 °F 42.1 °F 42% 30.15 in 10.0 mi NNW 11.5 mph 18.4 mph N/A   Partly Cloudy
3:54 PM 66.9 °F 42.1 °F 40% 30.14 in 10.0 mi West 10.4 mph 17.3 mph N/A   Partly Cloudy
4:54 PM 68.0 °F 42.1 °F 39% 30.14 in 10.0 mi WNW 8.1 mph - N/A   Mostly Cloudy
5:54 PM 66.9 °F 39.9 °F 37% 30.14 in 10.0 mi WNW 11.5 mph 20.7 mph N/A   Partly Cloudy
6:54 PM 64.9 °F 39.0 °F 39% 30.14 in 10.0 mi WNW 9.2 mph - N/A   Partly Cloudy
7:54 PM 60.1 °F 39.9 °F 47% 30.14 in 10.0 mi West 5.8 mph - N/A   Partly Cloudy
8:54 PM 54.0 °F 46.0 °F 75% 30.15 in 10.0 mi West 3.5 mph - N/A   Clear
9:54 PM 51.1 °F 45.0 °F 80% 30.16 in 10.0 mi West 4.6 mph - N/A   Clear
10:54 PM 51.1 °F 45.0 °F 80% 30.16 in 10.0 mi SSW 4.6 mph - N/A   Clear
11:54 PM 48.9 °F 45.0 °F 86% 30.17 in 10.0 mi SW 3.5 mph - N/A   Clear